Location: Ceska republika
(50.0000°N, 15.0000°E)
Time: 10:01:33
(UTC+02:00)

ISS - Visible Passes

Search period start: 28 May 2018 00:00
Search period end: 07 June 2018 00:00
Orbit: 402 x 407 km, 51.6° (Epoch: 28 May)

Date Brightness Start Highest point End Pass type
(mag) Time Alt. Az. Time Alt. Az. Time Alt. Az.
28 May -2.0 01:06:56 10° W 01:08:21 21° W 01:08:21 21° W visible
28 May -3.4 22:38:06 10° WNW 22:41:22 65° N 22:44:37 10° E visible
29 May -3.7 00:14:38 10° WNW 00:17:42 54° SW 00:17:42 54° SW visible
29 May -3.3 21:45:49 10° W 21:49:05 62° N 21:52:20 10° E visible
29 May -4.0 23:22:23 10° WNW 23:25:40 79° SSW 23:27:06 31° ESE visible
30 May -1.3 00:59:18 10° W 00:59:43 12° W 00:59:43 12° W visible
30 May -3.8 22:30:08 10° WNW 22:33:25 80° NNE 22:36:31 11° E visible
31 May -2.6 00:06:47 10° W 00:09:08 29° SW 00:09:08 29° SW visible
31 May -3.5 21:37:52 10° WNW 21:41:09 68° N 21:44:24 10° E visible
31 May -3.5 23:14:25 10° WNW 23:17:36 47° SSW 23:18:35 34° SSE visible
01 Jun -3.8 22:22:07 10° WNW 22:25:23 70° SSW 22:28:02 14° ESE visible
01 Jun -1.7 23:59:12 10° W 00:00:40 16° WSW 00:00:40 16° WSW visible
02 Jun -2.6 23:06:32 10° W 23:09:21 27° SW 23:10:09 24° S visible
03 Jun -3.2 22:14:05 10° W 22:17:11 41° SSW 22:19:40 14° SE visible
04 Jun -1.7 22:59:03 10° WSW 23:00:57 15° SW 23:01:50 13° SSW visible
05 Jun -2.2 22:06:12 10° W 22:08:51 23° SW 22:11:24 10° SSE visible
